Hourly Data Report for October 22, 2015

All times are specified in Local Standard Time (LST). Add 1 hour to adjust for Daylight Saving Time where and when it is observed.

BAKER LAKE A
NUNAVUT

64°17'56.000" N
96°04'40.000" W
18.60 m
2300503
71926
YBK

Download Data

Hourly Data (October 2015)
Hourly Data Report for October 22, 2015
Temp Definition
°C
Dew Point Temp Definition
°C
Rel Hum Definition
%
Wind Dir Definition
10's deg

Wind Spd Definition
km/h
Visibility Definition
km
Stn Press Definition
kPa
Hmdx Definition


Wind Chill Definition


Weather Definition


TIME
00:00 Legend Double Dagger -10.1 -12.5 83 5 21 24.1 101.99   -18 Snow
01:00 Legend Double Dagger -10.0 -12.4 83 5 18 24.1 101.97   -17 Snow
02:00 Legend Double Dagger -9.7 -12.2 82 4 16 24.1 101.92   -17 Snow
03:00 Legend Double Dagger -9.7 -11.9 84 3 12 24.1 101.89   -16 Snow
04:00 Legend Double Dagger -9.8 -12.2 83 36 9 24.1 101.87   -15 Snow
05:00 Legend Double Dagger -9.4 -11.3 86 4 13 24.1 101.78   -15 Snow
06:00 Legend Double Dagger -9.0 -10.5 89 5 13 24.1 101.73   -15 Snow
07:00 Legend Double Dagger -8.5 -9.7 91 5 17 11.3 101.64   -15 Snow
08:00 Legend Double Dagger -6.8 -7.6 94 7 12 16.1 101.56   -12 Freezing Drizzle,Snow Grains
09:00 Legend Double Dagger -5.2 -6.0 94 14 12 16.1 101.50   -10 Heavy Freezing Drizzle,Snow Grains
10:00 Legend Double Dagger -4.9 -5.7 94 14 12 16.1 101.41   -10 Freezing Drizzle,Snow Grains
11:00 Legend Double Dagger -4.5 -5.3 94 15 13 32.2 101.33   -10 Freezing Drizzle,Snow Grains
12:00 Legend Double Dagger -4.0 -5.1 92 15 13 32.2 101.24   -9 Cloudy
13:00 Legend Double Dagger -3.5 -5.2 88 14 17 32.2 101.15   -9 LegendNANA
14:00 Legend Double Dagger -3.0 -4.4 90 14 14 32.2 101.03   -8 LegendNANA
15:00 Legend Double Dagger -2.9 -3.9 93 14 18 4.0 100.92   -9 Snow
16:00 Legend Double Dagger -2.7 -3.5 94 15 20 1.0 100.82   -9 Snow
17:00 Legend Double Dagger -2.6 -3.3 95 15 20 1.0 100.72   -9 Snow
18:00 Legend Double Dagger -2.7 -3.4 95 15 22 2.4 100.61   -9 Snow
19:00 Legend Double Dagger -2.9 -3.7 94 15 22 12.9 100.55   -9 Snow
20:00 Legend Double Dagger -3.1 -3.9 94 16 19 4.8 100.44   -9 Snow
21:00 Legend Double Dagger -3.2 -4.0 94 16 16 4.8 100.34   -9 Snow
22:00 Legend Double Dagger -3.3 -4.1 94 15 15 9.7 100.23   -8 Snow
23:00 Legend Double Dagger -3.2 -3.9 95 15 8 4.8 100.16   -6 Snow

Notes on Data Quality.

Legend

  • E = Estimated
  • M = Missing
  • NA = Not Available
  • ‡ = Partner data that is not subject to review by the National Climate Archives
Date modified: